Hourly Data Report for October 20, 2016

All times are specified in Local Standard Time (LST). Add 1 hour to adjust for Daylight Saving Time where and when it is observed.

KITCHENER/WATERLOO
ONTARIO

43°27'39.000" N
80°22'43.000" W
321.60 m
6144239
71368
YKF

Download Data

Hourly Data (October 2016)
Hourly Data Report for October 20, 2016
Temp Definition
°C
Dew Point Temp Definition
°C
Rel Hum Definition
%
Wind Dir Definition
10's deg

Wind Spd Definition
km/h
Visibility Definition
km
Stn Press Definition
kPa
Hmdx Definition


Wind Chill Definition


Weather Definition


TIME
00:00 Legend Double Dagger 10.9 10.3 96 35 5 16.1 98.13     LegendNANA
01:00 Legend Double Dagger 11.9 11.0 94 1 8 16.1 98.13     Rain
02:00 Legend Double Dagger 12.0 11.2 95 15 5 16.1 98.19     Rain
03:00 Legend Double Dagger 11.9 11.0 94 6 8 16.1 98.11     Rain
04:00 Legend Double Dagger 12.1 10.7 91 1 15 16.1 98.01     Rain
05:00 Legend Double Dagger 11.7 10.9 95 16 8 16.1 98.06     Rain
06:00 Legend Double Dagger 11.9 11.0 94 15 11 9.7 98.16     Rain,Fog
07:00 Legend Double Dagger 11.9 11.1 95 9 11 16.1 98.09     Rain
08:00 Legend Double Dagger 12.2 11.4 95 1 9 14.5 98.07     Rain
09:00 Legend Double Dagger 12.8 12.0 95 5 13 11.3 98.04     LegendNANA
10:00 Legend Double Dagger 13.3 11.7 90 8 13 16.1 98.02     Rain
11:00 Legend Double Dagger 12.3 10.1 86 8 17 16.1 97.93     Rain
12:00 Legend Double Dagger 11.7 9.8 88 8 21 16.1 97.93     Rain
13:00 Legend Double Dagger 11.5 10.4 93 6 15 11.3 97.89     Rain
14:00 Legend Double Dagger 11.5 10.6 94 3 11 16.1 97.85     Rain
15:00 Legend Double Dagger 11.4 10.5 94 2 11 16.1 97.83     Rain
16:00 Legend Double Dagger 11.2 10.3 94 3 9 2.4 97.81     Rain,Fog
17:00 Legend Double Dagger 11.1 10.2 94 1 8 16.1 97.82     Rain
18:00 Legend Double Dagger 10.6 9.7 94 36 13 16.1 97.82     Rain
19:00 Legend Double Dagger 10.5 9.7 95 36 11 16.1 97.80     Rain
20:00 Legend Double Dagger 10.4 9.5 94 36 11 16.1 97.76     Rain
21:00 Legend Double Dagger 10.1 9.2 94 1 15 16.1 97.70     Rain
22:00 Legend Double Dagger 10.0 9.1 94 36 13 16.1 97.71     Rain
23:00 Legend Double Dagger 10.1 9.2 94 1 11 16.1 97.70     Rain

Notes on Data Quality.

Legend

  • E = Estimated
  • M = Missing
  • NA = Not Available
  • ‡ = Partner data that is not subject to review by the National Climate Archives
Date modified: